Inquirer Daily News

Weather

Get conditions and forecasts for any City, State, ZIP code or Country:  
Trenton, NJ
on Tuesday, January 22, 2013

Tuesday
Previous Day Next Day
Daily Summary
 ActualAverageRecord
Temperature
Mean Temperature °F 31°F  
Max Temperature 25°F 39°F 72°F (1906)
Min Temperature 13°F 23°F -13°F (1984)
Degree Days
Heating Degree Days 46 34  
Month to date heating degree days 626 747  
Since 1 July heating degree days 2384 2642  
Cooling Degree Days 0 0  
Month to date cooling degree days 0 0  
Year to date cooling degree days 0 0  
Moisture
Dew Point -2°F   
Average Humidity 42    
Maximum Humidity 50    
Minimum Humidity 34    
Precipitation
Precipitation 0.00 in 0.09 in 1.20 in (1987)
Month to date precipitation 1.64 2.24  
Year to date precipitation 1.64 2.24  
Wind
Wind Speed 13 mph   
Max Wind Speed 24 mph   
Max Gust Speed 32 mph   
Visibility 10 miles   
Events     

Key: T is trace of precipitation, MM is missing value
Source: NWS Daily Summary
Time(EST)TemperatureDew PointHumidity Pressure Visibility Wind DirectionWind SpeedGust SpeedPrecipitationEvents Conditions
12:53 AM 24.1°F 9.0°F 53% 29.86 in 10.0 miles NW 9.2 mph - N/A   Clear
1:53 AM 23.0°F 6.1°F 48% 29.88 in 10.0 miles NW 16.1 mph 27.6 mph N/A   Clear
2:53 AM 21.0°F 1.9°F 44% 29.90 in 10.0 miles NW 16.1 mph 25.3 mph N/A   Clear
3:53 AM 19.9°F 1.0°F 44% 29.93 in 10.0 miles NW 12.7 mph 27.6 mph N/A   Clear
4:53 AM 19.0°F 1.9°F 47% 29.96 in 10.0 miles NW 9.2 mph 18.4 mph N/A   Clear
5:53 AM 18.0°F 1.9°F 50% 29.98 in 10.0 miles NW 10.4 mph 21.9 mph N/A   Clear
6:53 AM 17.1°F 1.0°F 50% 30.02 in 10.0 miles NW 9.2 mph 18.4 mph N/A   Clear
7:53 AM 17.1°F 1.0°F 50% 30.05 in 10.0 miles NW 8.1 mph - N/A   Clear
8:53 AM 18.0°F 1.0°F 48% 30.06 in 10.0 miles NW 18.4 mph 26.5 mph N/A   Clear
9:53 AM 19.0°F -0.0°F 43% 30.08 in 10.0 miles NNW 17.3 mph 26.5 mph N/A   Clear
10:53 AM 19.0°F -2.0°F 40% 30.09 in 10.0 miles NW 13.8 mph 25.3 mph N/A   Partly Cloudy
11:53 AM 19.0°F -2.0°F 40% 30.08 in 10.0 miles NW 18.4 mph 25.3 mph N/A   Scattered Clouds
12:53 PM 19.9°F -4.0°F 35% 30.06 in 10.0 miles WNW 15.0 mph 27.6 mph N/A   Mostly Cloudy
1:53 PM 19.9°F -5.1°F 33% 30.06 in 10.0 miles WNW 12.7 mph 28.8 mph N/A   Mostly Cloudy
2:53 PM 19.9°F -5.1°F 33% 30.07 in 10.0 miles WNW 16.1 mph 25.3 mph N/A   Partly Cloudy
3:53 PM 19.0°F -5.1°F 34% 30.09 in 10.0 miles NW 13.8 mph 24.2 mph N/A   Scattered Clouds
4:53 PM 18.0°F -6.0°F 35% 30.12 in 10.0 miles NW 18.4 mph 25.3 mph N/A   Clear
5:53 PM 17.1°F -5.1°F 37% 30.15 in 10.0 miles NW 9.2 mph 20.7 mph N/A   Clear
6:53 PM 16.0°F -4.0°F 41% 30.17 in 10.0 miles NW 10.4 mph - N/A   Clear
7:53 PM 16.0°F -5.1°F 39% 30.19 in 10.0 miles NW 15.0 mph 21.9 mph N/A   Clear
8:53 PM 15.1°F -5.1°F 41% 30.20 in 10.0 miles NW 13.8 mph 21.9 mph N/A   Clear
9:53 PM 14.0°F -5.1°F 43% 30.22 in 10.0 miles NW 13.8 mph 25.3 mph N/A   Clear
10:53 PM 14.0°F -5.1°F 43% 30.24 in 10.0 miles NW 9.2 mph 21.9 mph N/A   Partly Cloudy
11:53 PM 12.9°F -7.1°F 41% 30.23 in 10.0 miles NW 8.1 mph 19.6 mph N/A   Clear
Astronomy
Sunrise:07:16 AM (EST) Moon Rise:01:27 PM (EST)
Sunset:05:06 PM (EST) Moon Set:03:35 AM (EST)
Moon Phase
Jan. 22 Jan. 26 Feb. 03 Feb. 10 Feb. 17

Copyright © 2014 The Weather Underground, Inc.